EW7067 Weather Reports


Display with metric or nautical units.
time (UTC)temp
F
wind
direction
speed
MPH
gust
MPH
rain 1hr
in
rain 24hr
in
rain mn
in
humidity
%
barometer
mb
20260509194610 73 124 4.0 12.0 0.00 0.00 0.00 69 965.0
20260509194109 73 162 3.0 12.0 0.00 0.00 0.00 69 965.0
20260509193610 73 153 4.0 12.0 0.00 0.00 0.00 66 965.1
20260509193110 74 302 6.0 15.0 0.00 0.00 0.00 66 965.2
20260509192609 74 167 6.0 15.0 0.00 0.00 0.00 66 965.3
20260509192109 74 159 4.0 12.0 0.00 0.00 0.00 65 965.3
20260509191608 74 178 2.0 8.0 0.00 0.00 0.00 68 965.4
20260509191109 74 150 2.0 10.0 0.00 0.00 0.00 64 965.5
20260509190609 74 182 3.0 10.0 0.00 0.00 0.00 65 965.6
20260509190109 74 215 4.0 11.0 0.00 0.00 0.00 65 965.6
20260509185610 74 171 4.0 13.0 0.00 0.00 0.00 66 965.6
20260509185111 74 242 2.0 13.0 0.00 0.00 0.00 67 965.6
20260509184610 73 185 3.0 14.0 0.00 0.00 0.00 70 965.5
20260509184110 72 148 5.0 14.0 0.00 0.00 0.00 71 965.5
20260509183609 72 208 4.0 12.0 0.00 0.00 0.00 71 965.6
20260509183109 72 111 4.0 11.0 0.00 0.00 0.00 73 965.6
20260509182608 71 171 4.0 12.0 0.00 0.00 0.00 73 965.7
20260509182108 71 236 4.0 12.0 0.00 0.00 0.00 70 965.7
20260509181106 71 252 4.0 14.0 0.00 0.00 0.00 73 965.8
20260509180606 71 157 5.0 12.0 0.00 0.00 0.00 71 965.9
20260509180105 71 219 3.0 11.0 0.00 0.00 0.00 71 965.9
20260509175606 71 217 3.0 12.0 0.00 0.00 0.00 75 966.1
20260509174603 70 177 4.0 12.0 0.00 0.00 0.00 72 966.3
20260509174103 71 246 4.0 12.0 0.00 0.00 0.00 73 966.4
20260509173602 71 232 4.0 12.0 0.00 0.00 0.00 72 966.4
20260509172558 70 248 2.0 10.0 0.00 0.00 0.00 75 966.4
20260509172059 70 282 3.0 12.0 0.00 0.00 0.00 74 966.5
20260509171558 69 331 4.0 12.0 0.00 0.00 0.00 76 966.4
20260509171059 69 177 4.0 9.0 0.00 0.00 0.00 75 966.5
20260509170556 69 186 2.0 9.0 0.00 0.00 0.00 74 966.6
20260509170056 69 217 2.0 7.0 0.00 0.00 0.00 74 966.7
20260509165558 69 168 2.0 8.0 0.00 0.00 0.00 76 966.7
20260509165055 69 159 3.0 10.0 0.00 0.00 0.00 75 966.8
20260509164554 69 182 3.0 10.0 0.00 0.00 0.00 74 966.7
20260509164053 68 252 3.0 14.0 0.00 0.00 0.00 76 966.9
20260509163553 68 275 3.0 14.0 0.00 0.00 0.00 76 967.1
20260509163050 68 239 3.0 11.0 0.00 0.00 0.00 75 967.2
20260509162550 68 175 4.0 12.0 0.00 0.00 0.00 75 967.2
20260509162051 68 233 4.0 12.0 0.00 0.00 0.00 75 967.3
20260509161045 68 165 4.0 11.0 0.00 0.00 0.00 75 967.4
20260509160539 67 235 4.0 10.0 0.00 0.00 0.00 76 967.6
20260509160033 67 162 3.0 11.0 0.00 0.00 0.00 76 967.6
20260509155527 67 174 2.0 11.0 0.00 0.00 0.00 76 967.6
20260509155022 67 186 3.0 12.0 0.00 0.00 0.00 77 967.6
20260509154515 67 172 5.0 14.0 0.00 0.00 0.00 76 967.6
20260509154009 67 180 6.0 14.0 0.00 0.00 0.00 77 967.5
20260509153503 66 156 4.0 14.0 0.00 0.00 0.00 78 967.4
20260509152957 66 157 3.0 10.0 0.00 0.00 0.00 79 967.4
20260509152451 65 198 2.0 10.0 0.00 0.00 0.00 79 967.5
20260509151946 65 317 1.0 6.0 0.00 0.00 0.00 80 967.6
20260509151440 65 228 1.0 8.0 0.00 0.00 0.00 80 967.6
20260509150933 65 240 1.0 8.0 0.00 0.00 0.00 80 967.5
20260509150427 65 177 1.0 8.0 0.00 0.00 0.00 80 967.5
20260509145922 65 235 1.0 7.0 0.00 0.00 0.00 82 967.5
20260509145415 65 169 2.0 10.0 0.00 0.00 0.00 81 967.6
20260509144908 65 183 2.0 10.0 0.00 0.00 0.00 81 967.7
20260509144404 64 158 2.0 7.0 0.00 0.00 0.00 82 967.7
20260509143857 64 234 1.0 9.0 0.00 0.00 0.00 84 967.6
20260509143352 64 164 1.0 9.0 0.00 0.00 0.00 84 967.6
20260509141833 62 193 3.0 9.0 0.00 0.00 0.00 85 967.7
20260509141329 62 163 2.0 9.0 0.00 0.00 0.00 86 967.7
20260509140821 61 174 1.0 7.0 0.00 0.00 0.00 87 967.7
20260509140315 61 163 2.0 9.0 0.00 0.00 0.00 86 967.6
20260509135809 61 140 2.0 9.0 0.00 0.00 0.00 87 967.6
20260509135306 60 186 1.0 9.0 0.00 0.00 0.00 89 967.4
20260509134757 60 259 1.0 6.0 0.00 0.00 0.00 89 967.6
20260509134251 59 225 2.0 7.0 0.00 0.00 0.00 88 967.6
20260509133744 59 206 2.0 7.0 0.00 0.00 0.00 89 967.7
20260509133239 59 234 2.0 6.0 0.00 0.00 0.00 90 967.8
20260509132227 58 180 2.0 11.0 0.00 0.00 0.00 92 967.8
20260509131722 58 200 1.0 6.0 0.00 0.00 0.00 93 967.9
20260509131215 57 242 1.0 4.0 0.00 0.00 0.00 93 967.9
20260509125657 55 237 0.0 0.0 0.00 0.00 0.00 89 968.4
20260509125151 55 237 0.0 0.0 0.00 0.00 0.00 89 968.5
20260509124645 55 237 0.0 0.0 0.00 0.00 0.00 89 968.7
20260509124140 54 237 0.0 0.0 0.00 0.00 0.00 89 968.7
20260509123638 53 237 0.0 0.0 0.00 0.00 0.00 89 968.8
20260509123136 52 237 0.0 0.0 0.00 0.00 0.00 89 968.8
20260509122634 51 237 0.0 0.0 0.00 0.00 0.00 89 968.9
20260509122134 51 237 0.0 0.0 0.00 0.00 0.00 90 968.8
20260509121630 50 237 0.0 0.0 0.00 0.00 0.00 90 968.7
20260509121128 49 237 0.0 0.0 0.00 0.00 0.00 90 968.6
20260509120625 49 237 0.0 0.0 0.00 0.00 0.00 90 968.5
20260509120125 48 237 0.0 0.0 0.00 0.00 0.00 90 968.6
20260509115622 48 237 0.0 0.0 0.00 0.00 0.00 90 968.6
20260509115121 48 237 0.0 0.0 0.00 0.00 0.00 90 968.6
20260509114115 47 237 0.0 0.0 0.00 0.00 0.00 91 968.4
20260509113115 46 237 0.0 0.0 0.00 0.00 0.00 91 968.1
20260509112615 46 237 0.0 0.0 0.00 0.00 0.00 91 968.1
20260509112112 46 237 0.0 0.0 0.00 0.00 0.00 91 968.3
20260509111614 45 237 0.0 0.0 0.00 0.00 0.00 91 968.2
20260509111112 45 237 0.0 0.0 0.00 0.00 0.00 91 968.1
20260509110610 45 237 0.0 0.0 0.00 0.00 0.00 91 968.1
20260509110109 45 237 0.0 0.0 0.00 0.00 0.00 91 968.1
20260509104100 44 237 0.0 0.0 0.00 0.00 0.00 92 968.2
20260509103058 44 237 0.0 0.0 0.00 0.00 0.00 92 968.0
20260509102558 44 237 0.0 0.0 0.00 0.00 0.00 92 968.0
20260509102055 44 237 0.0 0.0 0.00 0.00 0.00 92 967.8
20260509101054 44 237 0.0 2.0 0.00 0.00 0.00 92 967.8
20260509100551 44 237 0.0 2.0 0.00 0.00 0.00 92 967.7
20260509100052 45 237 0.0 1.0 0.00 0.00 0.00 92 967.6
20260509095050 45 237 0.0 0.0 0.00 0.00 0.00 92 967.6
20260509094551 45 237 0.0 0.0 0.00 0.00 0.00 92 967.6
20260509094050 45 237 0.0 0.0 0.00 0.00 0.00 92 967.5
20260509093547 45 237 0.0 0.0 0.00 0.00 0.00 92 967.6
20260509093048 45 237 0.0 0.0 0.00 0.00 0.00 92 967.5
20260509092548 45 237 0.0 0.0 0.00 0.00 0.00 92 967.7
20260509091548 45 237 0.0 0.0 0.00 0.00 0.00 92 967.7
20260509091047 45 237 0.0 0.0 0.00 0.00 0.00 92 967.8
20260509090547 45 237 0.0 0.0 0.00 0.00 0.00 92 967.6
20260509090047 45 237 0.0 0.0 0.00 0.00 0.00 92 967.7
20260509085548 46 237 0.0 0.0 0.00 0.00 0.00 92 967.7
20260509085043 46 237 0.0 0.0 0.00 0.00 0.00 92 967.5
20260509084544 46 237 0.0 0.0 0.00 0.00 0.00 92 967.5
20260509084043 46 237 0.0 0.0 0.00 0.00 0.00 92 967.6
20260509083543 46 237 0.0 0.0 0.00 0.00 0.00 92 967.7
20260509082545 47 237 0.0 0.0 0.00 0.00 0.00 92 968.0
20260509082046 46 237 0.0 0.0 0.00 0.00 0.00 92 968.0
20260509081544 47 237 0.0 0.0 0.00 0.00 0.00 92 968.0
20260509081045 47 237 0.0 0.0 0.00 0.00 0.00 92 967.9
20260509080540 47 237 0.0 0.0 0.00 0.00 0.00 92 967.9
20260509080041 47 237 0.0 0.0 0.00 0.00 0.00 92 967.9
20260509075543 47 237 0.0 0.0 0.00 0.00 0.00 93 967.9
20260509075040 47 237 0.0 0.0 0.00 0.00 0.00 93 967.9
20260509074539 47 237 0.0 0.0 0.00 0.00 0.00 93 967.9
20260509074039 47 237 0.0 0.0 0.00 0.00 0.00 93 968.0
20260509073539 47 237 0.0 0.0 0.00 0.00 0.00 93 967.9
20260509073040 48 237 0.0 0.0 0.00 0.00 0.00 93 967.9
20260509072540 48 237 0.0 0.0 0.00 0.00 0.00 93 968.0
20260509072040 48 237 0.0 0.0 0.00 0.00 0.00 93 968.1
20260509071539 48 237 0.0 0.0 0.00 0.00 0.00 93 968.3
20260509071039 48 237 0.0 0.0 0.00 0.00 0.00 93 968.3
20260509070541 48 237 0.0 0.0 0.00 0.00 0.00 93 968.3
20260509070037 48 237 0.0 0.0 0.00 0.00 0.00 93 968.4
20260509065538 48 237 0.0 0.0 0.00 0.00 0.00 93 968.5
20260509065038 48 237 0.0 0.0 0.00 0.00 0.00 93 968.7
20260509064535 49 237 0.0 0.0 0.00 0.00 0.00 93 968.7
20260509064031 49 237 0.0 0.0 0.00 0.00 0.00 93 968.8
20260509063530 49 237 0.0 0.0 0.00 0.00 0.00 93 968.9
20260509063028 49 237 0.0 0.0 0.00 0.00 0.00 93 968.9
20260509062528 49 237 0.0 1.0 0.00 0.00 0.00 93 969.0
20260509062026 50 237 0.0 1.0 0.00 0.00 0.00 93 969.1
20260509061524 50 237 0.0 0.0 0.00 0.00 0.00 93 969.0
20260509061024 50 237 0.0 0.0 0.00 0.00 0.00 93 969.0
20260509060517 50 237 0.0 0.0 0.00 0.00 0.00 93 969.0
20260509055511 50 237 0.0 0.0 0.00 0.00 0.00 93 969.2
20260509055012 51 237 0.0 0.0 0.00 0.00 0.00 93 969.2
20260509054509 51 237 0.0 0.0 0.00 0.00 0.00 93 969.2
20260509054009 51 237 0.0 0.0 0.00 0.00 0.00 93 969.4
20260509053508 51 237 0.0 0.0 0.00 0.00 0.00 93 969.3
20260509052507 51 237 0.0 0.0 0.00 0.00 0.00 93 969.5
20260509052005 51 237 0.0 0.0 0.00 0.00 0.00 93 969.4
20260509051506 52 237 0.0 0.0 0.00 0.00 0.00 93 969.4
20260509051007 52 237 0.0 0.0 0.00 0.00 0.00 93 969.5
20260509050505 52 237 0.0 0.0 0.00 0.00 0.00 92 969.6
20260509050006 52 237 0.0 0.0 0.00 0.00 0.00 92 969.7
20260509044503 53 237 0.0 0.0 0.00 0.00 0.00 92 969.9
20260509044001 53 237 0.0 0.0 0.00 0.00 0.00 92 969.9
20260509043501 53 237 0.0 0.0 0.00 0.00 0.00 92 969.8
20260509042954 53 237 0.0 0.0 0.00 0.00 0.00 92 969.8
20260509042447 53 237 0.0 0.0 0.00 0.00 0.00 91 969.8
20260509041942 53 237 0.0 0.0 0.00 0.00 0.00 91 969.8
20260509041436 53 237 0.0 0.0 0.00 0.00 0.00 91 969.8
20260509040928 54 237 0.0 0.0 0.00 0.00 0.00 91 969.9
20260509035917 54 237 0.0 0.0 0.00 0.00 0.00 91 969.8
20260509033911 54 237 0.0 0.0 0.00 0.00 0.00 90 969.9
20260509033410 54 237 0.0 0.0 0.00 0.00 0.00 90 969.9
20260509032909 54 237 0.0 0.0 0.00 0.00 0.00 89 970.0
20260509032408 54 237 0.0 0.0 0.00 0.00 0.00 89 969.9
20260509031905 54 237 0.0 0.0 0.00 0.00 0.00 88 970.0
20260509031405 55 237 0.0 0.0 0.00 0.00 0.00 88 970.0
20260509030902 55 237 0.0 0.0 0.00 0.00 0.00 87 970.0
20260509030359 55 237 0.0 0.0 0.00 0.00 0.00 87 969.9
20260509025859 55 237 0.0 0.0 0.00 0.00 0.00 86 969.9
20260509025359 55 237 0.0 0.0 0.00 0.00 0.00 86 970.0
20260509024858 56 237 0.0 0.0 0.00 0.00 0.00 85 970.1
20260509023352 56 237 0.0 0.0 0.00 0.00 0.00 84 970.1
20260509022851 56 237 0.0 0.0 0.00 0.00 0.00 83 970.1
20260509021846 57 237 0.0 0.0 0.00 0.00 0.00 82 970.1
20260509020835 57 237 0.0 0.0 0.00 0.00 0.00 82 970.1
20260509020329 57 237 0.0 0.0 0.00 0.00 0.00 82 970.0
20260509015823 57 237 0.0 0.0 0.00 0.00 0.00 80 970.0
20260509015317 57 237 0.0 0.0 0.00 0.00 0.00 80 969.9
20260509014812 57 237 0.0 0.0 0.00 0.00 0.00 80 969.9
20260509013759 58 237 0.0 0.0 0.00 0.00 0.00 79 970.0
20260509013252 58 237 0.0 0.0 0.00 0.00 0.00 79 969.9
20260509012746 58 237 0.0 0.0 0.00 0.00 0.00 78 969.8
20260509012241 58 237 0.0 0.0 0.00 0.00 0.00 78 969.7
20260509011734 58 237 0.0 0.0 0.00 0.00 0.00 77 969.7
20260509011229 59 237 0.0 0.0 0.00 0.00 0.00 76 969.7
20260509010724 59 237 0.0 0.0 0.00 0.00 0.00 75 969.8
20260509005205 60 237 0.0 0.0 0.00 0.00 0.00 73 969.7
20260509004659 60 237 0.0 0.0 0.00 0.00 0.00 73 969.6
20260509004153 60 237 0.0 0.0 0.00 0.00 0.00 72 969.6
20260509003647 61 237 0.0 0.0 0.00 0.00 0.00 72 969.5
20260509003141 61 237 0.0 0.0 0.00 0.00 0.00 71 969.5
20260509002635 62 237 0.0 0.0 0.00 0.00 0.00 70 969.4
20260509002129 62 237 0.0 4.0 0.00 0.00 0.00 68 969.5
20260509001623 63 237 0.0 4.0 0.00 0.00 0.00 66 969.5
20260509000611 64 171 0.0 1.0 0.00 0.00 0.00 65 969.5
20260509000105 64 171 0.0 1.0 0.00 0.00 0.00 65 969.4
20260508235559 64 171 0.0 2.0 0.00 0.00 0.00 64 969.3
20260508235053 65 171 0.0 2.0 0.00 0.00 0.00 62 969.3
20260508234546 65 171 0.0 1.0 0.00 0.00 0.00 63 969.3
20260508234040 65 171 0.0 4.0 0.00 0.00 0.00 61 969.3
20260508233535 65 171 1.0 4.0 0.00 0.00 0.00 60 969.2
20260508233028 65 169 1.0 5.0 0.00 0.00 0.00 59 969.3
20260508232522 66 165 2.0 7.0 0.00 0.00 0.00 57 969.3
20260508232017 66 165 2.0 7.0 0.00 0.00 0.00 57 969.2
20260508231511 66 202 2.0 10.0 0.00 0.01 0.00 58 969.2
20260508231005 66 219 2.0 10.0 0.00 0.01 0.00 57 969.4
20260508230458 66 191 2.0 8.0 0.00 0.01 0.00 57 969.3
20260508225952 67 171 2.0 8.0 0.00 0.01 0.00 56 969.4
20260508225446 67 164 3.0 10.0 0.00 0.01 0.00 54 969.4
20260508224941 67 218 3.0 9.0 0.00 0.01 0.00 54 969.2
20260508224435 68 164 2.0 9.0 0.00 0.01 0.00 54 969.3
20260508223929 68 246 1.0 6.0 0.00 0.01 0.00 54 969.3
20260508223423 68 248 1.0 7.0 0.00 0.01 0.00 54 969.3
20260508222917 68 261 1.0 8.0 0.00 0.01 0.00 54 969.2
20260508222411 69 211 2.0 8.0 0.00 0.01 0.00 54 969.2
20260508221905 69 185 3.0 12.0 0.00 0.01 0.00 52 969.2
20260508221400 68 221 4.0 12.0 0.00 0.01 0.00 53 969.2
20260508220853 68 152 3.0 10.0 0.00 0.01 0.00 54 969.3
20260508220347 68 205 3.0 8.0 0.00 0.01 0.00 54 969.3
20260508214834 69 221 3.0 12.0 0.00 0.01 0.00 52 969.0
20260508214335 68 142 2.0 7.0 0.00 0.01 0.00 54 969.0
20260508213335 69 267 3.0 9.0 0.00 0.01 0.00 50 968.9
20260508212834 69 77 2.0 8.0 0.00 0.01 0.00 52 969.0
20260508212335 69 182 2.0 6.0 0.00 0.01 0.00 49 969.1
20260508211835 69 221 2.0 9.0 0.00 0.01 0.00 49 969.1
20260508210835 69 167 2.0 11.0 0.00 0.01 0.00 49 969.3
20260508205835 69 222 3.0 11.0 0.00 0.01 0.00 47 969.3
20260508205332 69 165 2.0 10.0 0.00 0.01 0.00 47 969.3
20260508204833 70 163 1.0 7.0 0.00 0.01 0.00 46 969.4
20260508204333 69 215 1.0 7.0 0.00 0.01 0.00 49 969.4
20260508203832 69 323 2.0 12.0 0.00 0.01 0.00 47 969.5
20260508203330 69 206 3.0 12.0 0.00 0.01 0.00 47 969.6
20260508202329 69 198 1.0 8.0 0.00 0.01 0.00 45 969.7
20260508201829 69 350 1.0 6.0 0.00 0.01 0.00 46 969.8
20260508201327 69 194 3.0 11.0 0.00 0.01 0.00 47 969.8
20260508200827 68 136 4.0 11.0 0.00 0.01 0.00 47 970.0
20260508200327 69 240 3.0 11.0 0.00 0.01 0.00 46 970.2
20260508195327 69 154 4.0 8.0 0.00 0.01 0.00 43 970.3